Showing default

GSAT 6A, 43241

Orbit data source: Space-Track

GSAT 6A, 43241 is a payload satellite owned by ISRO (IN) that was launched on Thu, 29 Mar 2018 UTC via a GSLV MK II launch vehicle from the Sirharikota (SRI). Payloads include a variety of satellites, spacecraft, and rockets equipped with specific instruments for various scientific and technological missions. These include communications satellites like Starlink; space stations such as the ISS; scientific satellites like the Hubble; Earth observation satellites from companies like Planet Labs, Umbra, and HawkEye 360; GPS; miniature CubeSats for education and research; and military/defense satellites.

Not visible in the next 10 days
GSAT 6A details
Identifier
43241, 2018-027A
Orbit
Active
Last TLE update1 day ago
Origin
Flag of INISRO (IN / IND)
ManufacturerISRO
MissionNon-operational Defense Communications
Bus & MotorI2K, ISRO LAM
Mass2,230 kg wet, 976 kg dry
Launch date (UTC)
2018-03-29 (7 years ago)
Launch vehicle
GSLV MK II
Launch site
Sirharikota (SRI)
Object type
Payload
Rocket body
Debris
Shape & HBRBox + 2 Pan, 9.5 m
Radar Cross Section8.526 m², Large (>1 m²)

Expand to show TLE details & history

TLE from 1 day ago
0 GSAT 6A
1 43241U 18027A   24360.44816944 -.00000088  00000-0  00000-0 0  9994
2 43241   2.0782  95.7676 1300543  83.6032  20.3646  1.19316905 29437
Epoch: 2024-12-25T10:45Z
Definitive object data (Epoch: 2024-12-25T10:45:21.839Z)
Latitude1.94616°
Longitude-49.96853°
Altitude26,700.946 km
Speed3.672 km/s
True Right ascension13h 43m 15s
True Declination1° 56' 37"
Sunlit
Object was in daylight at TLE epoch
Visualization TLE readout
Latitude-0.01443°
Longitude19.78792°
Altitude31,061.395 km
Speed3.268 km/s
Apparent Right ascension18h 43m 01s
Apparent Declination-5° 42' 25"
Sunlit
Object is in daylight
Visualization observer readout
Local Sidereal Time09:37:43
Azimuth60.706° ENE
Elevation-38.009°
Doppler factor1
Orbital elements
Apogee altitude36,055.865 km
Perigee altitude26,288.68 km
Semi-major axis37,550.41 km
Eccentricity0.1300543
Inclination2.0782°
RAAN95.7676°
Arg. of periapsis83.6032°
True anomaly26.46346°
Mean anomaly20.3646°
Eccentric anomaly23.31366°
Mean motion0.29828 °/min
BSTARUnknown
Orbital period1206.93 mins
Loading maneuver chart data...
Loading historical data...
Loading historical data...
Loading historical data...
Loading historical data...
Loading historical data...
Loading historical data...
Loading historical data...
Other satellites on launch #27 in the year 2018 (2018-03-29 UTC)

GSAT 6A Visibility forecast

Observer location: undefined°, undefined

GSAT 6A is not visible in the next 10 days
Span
Click to sort rows by Start time (UTC) header in descending order
Start Az.
Max El. time (UTC)
Max El. Az.
Max El.
End time (UTC)
End Az.
|